Home > Weather > Włocławek > Past weeks

Flag for Poland Past Weather in Włocławek, Poland — Yesterday and Last 2 Weeks

Now
85 °F

Pleasantly warm.


Feels Like: 84 °F
Forecast: 63 / 85 °F
Wind: 2 mph from Southwest

Location: Plock

Current Time: Jun 30, 2016 at 4:14:00 PM

Latest Report: Jun 30, 2016 at 3:00 PM


Visibility: 22 mi

Pressure: 29.91 "Hg

Humidity: 37%

Dew Point: 56 °F

Location of WłocławekLocation

Past Weather in Włocławek — Graph

°F

Włocławek Temperature Yesterday

Maximum temperature yesterday: 78 °F (at 1:00 PM)
Minimum temperature yesterday: 56 °F (at 5:00 AM)
Average temperature yesterday: 68 °F

High & Low Weather Summary for the Past Weeks

 TemperatureHumidityPressure
High92 °F (Jun 25, 2:00 PM)97% (Jun 21, 7:00 AM)30.32 "Hg (Jun 21, 7:00 AM)
Low51 °F (Jun 19, 5:00 AM)35% (Jun 19, 4:00 PM)29.38 "Hg (Jun 17, 11:00 AM)
Average68 °F71%29.98 "Hg
* Reported Jun 15 2:00 PM — Jun 30 2:00 PM, Włocławek, Weather by CustomWeather, © 2016

Note: Actual official high and low records may vary slightly from our data, if they occured in-between our weather recording intervals... More about our weather records

Advertising

Włocławek Weather History for the Previous 24 Hours

Scroll right to see more
 ConditionsComfort  
Time TempWeatherWind HumidityBarometerVisibility
2:00 PM
Thu, Jun 30
84 °FPleasantly warm.3 mph39%29.92 "Hg25 mi
1:00 PM83 °FPleasantly warm.3 mph39%29.93 "Hg25 mi
12:00 PM80 °FWarm.3 mph48%29.94 "Hg22 mi
7:00 AM67 °FMild.3 mph76%29.96 "HgN/A
6:00 AM63 °FMild.1 mph85%29.95 "Hg16 mi
5:00 AM59 °FCool.2 mph90%29.95 "Hg6 mi
4:00 AM61 °FCool.2 mph86%29.95 "Hg9 mi
3:00 AM61 °FFog.1 mph94%29.95 "Hg4 mi
2:00 AM60 °FFog.2 mph94%29.94 "Hg3 mi
1:00 AM61 °FFog.1 mph93%29.94 "Hg4 mi
12:00 AM63 °FMild.No wind91%29.94 "Hg6 mi
9:00 PM
Wed, Jun 29
70 °FMild.1 mph75%29.90 "Hg16 mi
8:00 PM74 °FMild.2 mph67%29.89 "Hg19 mi
7:00 PM72 °FMild.2 mph72%29.90 "Hg19 mi
6:00 PM74 °FMild.1 mph65%29.90 "Hg18 mi
5:00 PM74 °FMild.2 mph63%29.90 "Hg22 mi
4:00 PM70 °FMild.2 mph75%29.92 "Hg22 mi
Weather by CustomWeather, © 2016

See weather overviewHow to use our weather pages